Regional Weather Roundup
Issued by NWS

Home | Current Version | Previous Version | Text Only | Print | Product List | Glossary On
Versions: 1 2 3 4 5 6 7 8 9 10 11 12 13 14 15 16 17 18 19 20 21 22 23 24 25 26 27 28 29 30 31 32 33 34 35 36 37 38 39 40 41 42 43 44 45 46 47 48 49 50
000
ASUS46 KSEW 301910
RWRWA

WASHINGTON REGIONAL WEATHER ROUNDUP
NATIONAL WEATHER SERVICE SEATTLE WA
1200 PM PDT THU JUL 30 2015

NOTE:"FAIR" INDICATES FEW OR NO CLOUDS BELOW 12,000 FEET WITH NO
SIGNIFICANT WEATHER AND/OR OBSTRUCTIONS TO VISIBILITY.

WAZ505-507>509-302000-
SEATTLE, TACOMA, EVERETT, AND VICINITY

CITY           SKY/WX    TMP DP  RH WIND       PRES   REMARKS
EVERETT        SUNNY     78  49  35 N8        30.12S
BOEING FIELD   SUNNY     85  49  28 NW7       30.08F
RENTON         SUNNY     82  52  35 NW12      30.07F
SEATAC AIRPORT SUNNY     84  51  31 N7        30.10F
JBLM-MCCHORD   NOT AVBL
PUYALLUP       FAIR      86  48  26 VRB5      30.10S
BREMERTON      SUNNY     84  48  28 NE12      30.12S
JBLM-FT LEWIS  SUNNY     83  49  31 NW8       30.08F
TACOMA NARROWS SUNNY     79  47  32 N10       30.10S
$$

WAZ001-503-506-510-514-515-302000-
NORTH INTERIOR

CITY           SKY/WX    TMP DP  RH WIND       PRES   REMARKS
BELLINGHAM     SUNNY     83  50  31 VRB7      30.11S
FRIDAY HARBOR  SUNNY     78  53  41 N9        30.12F
EASTSOUND      SUNNY     68  61  77 N7        30.11F
PORT ANGELES   SUNNY     78  50  37 E7        30.13S
PORT TOWNSEND  FAIR      79  52  38 NW8G14    30.11S
NAS WHIDBEY    MOSUNNY   72  53  51 W8        30.15S
ARLINGTON      SUNNY     82  54  36 W6        30.10F
BURLINGTON     SUNNY     79  52  38 W6        30.10F
$$

WAZ020-022-039-040-504-511-512-302000-
SOUTHWEST INTERIOR

CITY           SKY/WX    TMP DP  RH WIND       PRES   REMARKS
SHELTON        SUNNY     87  47  24 E7        30.06F
OLYMPIA        SUNNY     85  46  25 NE12      30.09S
CHEHALIS       FAIR      88  54  31 VRB7G15   30.07S
KELSO          SUNNY     88  54  31 NW9       30.06S
VANCOUVER      SUNNY     88  51  28 W8        30.01S
SCAPPOOSE, OR  SUNNY     92  51  24 NE8       30.00F
PORTLAND, OR   MOSUNNY   88  53  30 W8        30.01F
$$

WAZ021-516-517-302000-
WASHINGTON COAST

CITY           SKY/WX    TMP DP  RH WIND       PRES   REMARKS
FORKS          SUNNY     81  56  42 W7        30.10R
HOQUIAM        SUNNY     79  56  45 SW10      30.08F
ASTORIA, OR    SUNNY     84  50  30 NW8       30.03S
$$

WAZ019-023-024-040-518-519-302000-
CASCADE MOUNTAINS AND COLUMBIA GORGE

CITY           SKY/WX    TMP DP  RH WIND       PRES   REMARKS
TROUTDALE, OR  SUNNY     87  54  32 SW8       29.99F
THE DALLES, OR SUNNY     89  35  14 VRB3      30.04F
$$

WAZ026-027-041>044-520-521-302000-
EAST SLOPES

CITY           SKY/WX    TMP DP  RH WIND       PRES   REMARKS
OMAK           SUNNY     87  33  14 S5        30.12F
WENATCHEE      SUNNY     88  42  20 CALM      30.10F
ELLENSBURG     SUNNY     90  45  21 VRB3      30.13F
YAKIMA         SUNNY     93  41  16 E3        30.10F
$$

WAZ028-034-035-302000-
COLUMBIA BASIN

CITY           SKY/WX    TMP DP  RH WIND       PRES   REMARKS
EPHRATA        SUNNY     91  37  15 VRB5      30.11S
MOSES LAKE     SUNNY     91  40  16 VRB3      30.12F
PASCO          SUNNY     88  50  27 VRB5      30.08F
HERMISTON, OR  SUNNY     90  46  21 N8        30.06F
$$

WAZ036>038-302000-
NORTHEAST WASHINGTON

CITY           SKY/WX    TMP DP  RH WIND       PRES   REMARKS
SPOKANE GEIGER SUNNY     88  33  14 S9        30.18F
SPOKANE FELTS  SUNNY     90  43  19 E3        30.17F
FAIRCHILD AFB  NOT AVBL
COEURDALENE,ID SUNNY     88  37  16 S5        30.18F
DEER PARK      SUNNY     88  37  16 VRB6      30.19F
$$

WAZ029>033-302000-
SOUTHEAST WASHINGTON

CITY           SKY/WX    TMP DP  RH WIND       PRES   REMARKS
PULLMAN        SUNNY     90  36  14 MISG      30.21F
LEWISTON, ID   SUNNY     89  41  18 E7        30.13F
WALLA WALLA    SUNNY     91  38  15 VRB3      30.10F
PENDLETON, OR  SUNNY     95  34  11 N8        30.09F HX  90
$$



USA.gov is the U.S. government's official web portal to all federal, state and local government web resources and services.